Location: B�g�
(46.3080°N, 4.9290°E)
Time: 09:37:12
(UTC+00:00)

Daily predictions for brighter satellites

Satellite Brightness Start Highest point End
(mag) Time Altitude Azimuth Time Altitude Azimuth Time Altitude Azimuth
Cosmos 1850 Rocket 4.0 17:02:25 10° NNW 17:07:44 77° ENE 17:13:04 10° SSE
Cosmos 2369 Rocket 3.6 17:03:07 10° SW 17:08:25 40° NW 17:13:48 10° NNE
Cosmos 2297 Rocket 3.3 17:05:02 10° N 17:09:38 25° NE 17:14:13 10° ESE
Cosmos 1939 Rocket 3.6 17:06:39 10° SE 17:10:12 32° ENE 17:13:43 10° N
NOAA 12 4.2 17:08:00 10° SSE 17:13:17 85° WSW 17:18:39 10° NNW
COSMO-SKYMED 1 3.3 17:10:19 10° NNE 17:14:13 31° E 17:18:04 10° SSE
Cosmos 304 Rocket 4.4 17:09:54 10° SSW 17:14:38 61° WNW 17:19:23 10° NNE
Cosmos 1452 Rocket 3.6 17:10:33 10° SSW 17:15:48 84° WNW 17:21:08 10° NNE
FALCON 9 DEB 4.4 17:12:47 10° W 17:15:55 32° NNW 17:19:02 10° NE
Okean O Rocket 2.0 17:12:37 10° S 17:16:58 69° WSW 17:21:20 10° NNW
Cosmos 1689 Rocket 3.2 17:14:37 10° NE 17:16:59 22° E 17:19:20 10° SSE
Aureole 3 Rocket 4.3 17:15:19 10° SE 17:18:08 20° E 17:21:33 10° NE
H-2A R/B 3.4 17:16:16 10° ESE 17:20:12 21° ENE 17:24:11 10° NNE
H-2A R/B 3.3 17:17:45 10° N 17:21:43 42° WNW 17:25:37 10° SW
Cosmos 1328 3.7 17:18:01 10° N 17:21:59 84° E 17:25:55 10° S
Cosmos 2098 Rocket 4.1 17:20:52 10° NNW 17:23:50 34° W 17:26:30 10° SSW
IRS-1C Rocket 4.2 17:20:03 10° SE 17:25:09 55° ENE 17:30:18 10° N
ADEOS Rocket 3.9 17:19:44 10° N 17:25:51 59° WNW 17:32:39 10° SSW
Cosmos 1356 Rocket 4.2 17:22:03 10° SSW 17:26:14 58° WNW 17:30:30 10° N
Cosmos 1340 3.9 17:23:27 10° NNE 17:26:21 21° ENE 17:29:14 10° ESE
CORIOLIS 4.5 17:21:09 10° S 17:26:28 72° WSW 17:31:51 10° NNW
CZ-4 R/B 2.2 17:24:35 10° SE 17:27:56 28° ENE 17:31:14 10° N
Cosmos 1825 Rocket 3.5 17:23:52 10° N 17:28:19 65° E 17:32:42 10° SSE
ERS-2 2.3 17:25:23 10° N 17:29:02 74° WNW 17:32:40 10° SSW
BREEZE-M DEB (TANK) 4.3 17:27:12 10° W 17:30:45 60° N 17:42:44 11° ENE
YAOGAN 1 3.4 17:28:01 10° SE 17:31:44 29° ENE 17:35:28 10° N
USA 281 4.1 17:26:09 10° S 17:32:32 54° WSW 17:38:59 10° NNW
Lacrosse 5 3.2 17:29:31 10° W 17:34:02 32° NNW 17:38:35 10° NE
ERBS 4.4 17:32:32 10° WNW 17:35:02 19° NNW 17:37:34 10° NNE
Cosmos 2219 3.8 17:30:01 10° NNW 17:35:21 37° NE 17:40:39 10° ESE
Meteor 2-21 Rocket 4.4 17:29:49 10° N 17:36:01 68° E 17:42:07 10° SSE
CZ-4B R/B 2.0 17:37:10 10° N 17:40:24 56° WNW 17:43:30 10° SSW
SAR-Lupe-4 3.5 17:37:18 10° NNE 17:40:54 81° E 17:44:29 10° SSW
Cosmos 1400 Rocket 3.6 17:38:21 10° SSE 17:42:02 32° E 17:45:42 10° NNE
Cosmos 44 3.5 17:39:27 10° S 17:43:39 42° ESE 17:47:38 13° NE
USA 305 4.1 17:40:21 10° NW 17:44:11 30° N 17:46:51 16° ENE
Okean-O 2.8 17:40:42 10° SE 17:44:57 49° ENE 17:49:15 10° N
Cosmos 1726 Rocket 3.5 17:40:44 10° S 17:45:00 61° E 17:49:20 10° NNE
Cosmos 1758 Rocket 4.1 17:41:11 10° NNW 17:45:35 63° W 17:49:54 10° S
CZ-4C R/B 4.4 17:42:58 10° NW 17:47:08 18° N 17:51:46 10° NE
USA 306 4.1 17:46:38 10° NW 17:50:27 30° N 17:52:49 18° ENE
Aureole 3 2.9 17:54:37 10° S 17:57:50 46° E 18:00:42 10° NNE
SAR-Lupe-1 4.4 17:55:01 10° N 17:58:36 66° WNW 18:02:10 10° SSW
FALCON 9 DEB 3.8 17:56:27 10° SSW 17:59:22 32° SE 17:59:55 30° ESE
Cosmos 1606 Rocket 3.7 17:55:03 10° SSW 17:59:24 75° W 18:03:49 10° N
Cosmos 1331 Rocket 3.9 17:54:16 10° SSW 17:59:26 89° WNW 18:04:38 10° NNE
SKYMED 2 3.6 17:58:03 10° NNE 18:02:25 84° WNW 18:06:46 10° SSW
Cosmos 2228 3.5 17:59:31 10° SSW 18:03:43 62° W 18:07:58 10° N
GENESIS II 4.2 18:00:05 10° SSW 18:04:07 85° SE 18:07:02 18° NE
ATLAS 5 CENTAUR R/B 4.0 18:02:00 10° WNW 18:04:52 16° NNW 18:07:58 10° NNE
SL-4 R/B 2.8 18:03:09 10° WNW 18:06:29 36° N 18:08:01 25° NE
Cosmos 1244 Rocket 4.4 18:00:22 10° N 18:06:35 81° E 18:12:50 10° S
FALCON 9 DEB 3.4 18:03:56 10° SSW 18:06:56 39° SE 18:07:15 38° SE
NOSS 2-2 (D) 4.5 18:01:51 10° NW 18:07:19 68° NE 18:13:51 14° SE
CZ-2C R/B 3.3 18:01:57 10° SSE 18:07:43 66° ENE 18:13:21 10° N
Cosmos 292 Rocket 3.7 18:03:48 10° SSW 18:08:36 86° ESE 18:13:26 10° NNE
ARGOS 3.6 18:09:08 19° SE 18:12:36 40° ENE 18:17:39 10° N
Cosmos 1346 Rocket 3.4 18:09:25 10° N 18:12:50 34° ENE 18:12:50 34° ENE
Cosmos 2227 Rocket 2.3 18:08:13 10° NNW 18:13:45 53° ENE 18:17:08 23° SE
FALCON 9 DEB 3.4 18:11:52 10° SW 18:14:58 44° SE 18:15:00 44° SE
Meteor 2-10 Rocket 3.9 18:10:21 10° SSE 18:15:20 40° E 18:20:11 10° NNE
SeaSat 1 2.7 18:14:54 28° ESE 18:17:08 48° NE 18:21:54 10° NNW
Cosmos 1892 2.7 18:14:02 10° N 18:17:51 54° ENE 18:19:18 33° SE
CZ-2D R/B 3.9 18:15:41 10° S 18:19:26 57° W 18:23:13 10° NNW
USA 215 3.7 18:17:28 26° ENE 18:20:49 46° NNE 18:27:00 10° NW
Cosmos 1656 3.7 18:16:56 10° S 18:22:18 53° ESE 18:26:21 18° NE
Cosmos 2263 Rocket 3.9 18:20:59 10° N 18:24:14 15° NE 18:24:14 15° NE
Cosmos 968 Rocket 3.5 18:19:36 10° NNW 18:24:46 56° ENE 18:26:56 33° SE
ATLAS 2AS CENTAUR R/B 4.0 18:18:45 10° NW 18:25:08 27° NNE 18:27:53 22° NE
CSL-04 Rocket 3.6 18:19:56 10° SSE 18:25:26 68° ENE 18:30:57 10° N
Cosmos 2058 Rocket 3.2 18:21:32 10° SSW 18:26:00 80° W 18:30:32 10° N
Cosmos 1302 Rocket 3.9 18:22:40 10° SSW 18:27:56 85° ESE 18:33:15 10° NNE
HJ-1C 4.3 18:30:28 37° N 18:30:28 37° N 18:32:41 10° N
FALCON 9 DEB 3.3 18:26:29 10° SW 18:29:11 53° SSW 18:29:11 53° SSW
Cosmos 1300 4.2 18:26:54 10° SW 18:30:28 38° WNW 18:34:04 10° N
Cosmos 1486 Rocket 4.0 18:25:56 10° NNW 18:31:16 66° ENE 18:33:46 31° SE
USA 307 3.7 18:28:27 10° NW 18:32:26 37° NNE 18:32:53 36° NNE
Cosmos 1697 Rocket 3.4 18:29:05 10° S 18:32:53 32° SE 18:32:53 32° SE
USA 308 3.6 18:33:12 10° NW 18:37:14 38° NNE 18:37:27 38° NNE
Helios 1A Rocket 4.3 18:33:22 10° S 18:37:15 39° W 18:41:08 10° NNW
GEOS 3 Rocket 3.8 18:36:45 23° SSE 18:40:10 74° SW 18:45:35 10° NW
Cosmos 1503 Rocket 4.2 18:35:24 10° NNW 18:40:26 46° ENE 18:40:29 46° ENE
S3M 3.8 18:37:04 10° S 18:43:08 73° E 18:49:17 10° NNE
DMSP B5D1-3 4.4 18:38:00 10° NNE 18:43:11 87° ESE 18:48:20 10° SSW
CRYOSAT 2 4.2 18:39:54 10° N 18:44:48 81° E 18:49:39 10° S
Cosmos 1825 4.4 18:43:38 10° N 18:44:29 16° N 18:44:29 16° N
Cosmos 1354 Rocket 4.3 18:44:58 10° NNW 18:49:38 48° NE 18:49:38 48° NE
Milstar 3 4.4 18:45:47 10° SW 18:50:11 18° S 18:51:54 17° SSE
Cosmos 1408 4.1 18:48:43 10° N 18:50:33 28° N 18:50:33 28° N
Cosmos 2297 Rocket 2.5 18:48:34 10° NNW 18:54:12 67° WSW 18:57:46 23° S
Cosmos 2058 3.1 18:54:12 10° NNW 18:57:59 68° WNW 18:57:59 68° WNW
MOS 1 Rocket 3.4 18:54:12 10° N 18:58:46 72° WNW 19:03:36 10° SSW
H-2A R/B 2.4 18:53:46 10° S 18:59:07 67° W 19:04:34 10° NNW
SL-08 RB Rocket 4.4 19:03:12 41° N 19:03:12 41° N 19:06:12 10° N
CZ-4 R/B 3.5 18:59:39 10° SSW 19:02:56 25° W 19:06:11 10° NW
YAOGAN 1 4.4 19:03:58 10° SSW 19:07:46 30° W 19:11:36 10° NNW
Ariane Rocket 3.8 19:18:51 42° N 19:18:51 42° N 19:22:13 10° N
Lacrosse 5 3.5 19:14:07 10° NW 19:18:09 24° N 19:18:09 24° N
Cosmos 2219 4.4 19:14:12 10° NW 19:19:33 40° WSW 19:23:22 18° SSW
BREEZE-M R/B 4.1 19:17:43 10° WNW 19:22:30 76° NNE 19:23:15 69° ENE
USA 305 4.5 19:20:32 10° NW 19:23:00 32° NW 19:23:00 32° NW
Cosmos 2082 3.8 19:24:53 10° NNW 19:30:18 72° W 19:30:18 72° W
Atlas Centaur 2 4.4 19:25:45 10° SW 19:31:14 23° S 19:31:14 23° S
CZ-4C R/B 3.9 19:31:56 10° NNW 19:37:16 31° NNE 19:37:16 31° NNE
SeaSat 1 4.2 19:54:42 27° WSW 19:54:50 27° WSW 19:59:01 10° NW
NOSS 3-4 (A) 4.2 19:48:16 10° NW 19:53:45 54° N 19:53:45 54° N
NOSS 3-4 (C) 4.2 19:48:22 10° NW 19:53:51 54° N 19:53:51 54° N
Cosmos 2227 Rocket 4.0 19:52:52 10° NW 19:57:27 26° WSW 19:59:01 23° SW
USA 215 3.6 20:04:50 61° WNW 20:04:50 61° WNW 20:10:09 10° NW
Cosmos 2263 Rocket 4.0 20:03:40 10° NNW 20:05:55 24° NNW 20:05:55 24° NNW
ATLAS 2AS CENTAUR R/B 3.5 20:10:00 10° NW 20:15:19 47° NNW 20:15:19 47° NNW
